Regional Weather Roundup
Issued by NWS Nashville, TN

Home | Current Version | Previous Version | Text Only | Print | Product List | Glossary On
Versions: 1 2 3 4 5 6 7 8 9 10 11 12 13 14 15 16 17 18 19 20 21 22 23 24 25 26 27
000
ASUS44 KOHX 260410
RWROHX
MIDDLE TENNESSEE HOURLY WEATHER ROUNDUP
NATIONAL WEATHER SERVICE NASHVILLE TN
1000 PM CST SAT FEB 25 2017

NOTE: "FAIR" INDICATES FEW OR NO CLOUDS BELOW 12,000 FEET WITH
NO SIGNIFICANT WEATHER AND/OR OBSTRUCTIONS TO VISIBILITY.

* THESE REPORTS ARE NOT UNDER NWS QUALITY CONTROL AND MAY NOT
  REPORT WEATHER SUCH AS PRECIPITATION AND FOG.


TNZ005>011-023>034-057-059-062>066-078-080-260500
...NORTHERN MIDDLE TENNESSEE...

CITY           SKY/WX    TMP DP  RH WIND       PRES   REMARKS
CLARKSVILLE    CLEAR     34  17  50 SW3       30.15R
CROSSVILLE     CLEAR     31  18  58 NW5       30.09R WCI  26
GALLATIN       CLEAR     36  21  55 CALM      30.17S
DICKSON        CLEAR     32  19  58 CALM      30.13R
LIVINGSTON     CLEAR     34  19  54 CALM      30.11R
NASHVILLE      CLEAR     37  19  48 NW5       30.15S WCI  33
PORTLAND       CLEAR     32  21  64 CALM      30.14R
SMYRNA         CLEAR     32  22  66 W5        30.16R WCI  27
SPARTA         CLEAR     28  27  93 CALM      30.12R
SPRINGFIELD    PTCLDY    32  19  59 CALM      30.13S
WEST NASHVILLE CLEAR     34  18  51 NW3       30.16S
$$
TNZ056-058-060-061-075>077-079-093>097-260500
...SOUTHERN MIDDLE TENNESSEE...

CITY           SKY/WX    TMP DP  RH WIND       PRES   REMARKS
COLUMBIA       CLEAR     36  19  51 CALM      30.14R
FAYETTEVILLE   CLEAR     37  21  52 NW6       30.14R WCI  33
MCMINNVILLE    CLEAR     32  21  64 CALM      30.12S
MURFREESBORO     N/A     37  20  50 N3        30.14R
SHELBYVILLE    CLEAR     36  25  64 W3        30.15S
TULLAHOMA      CLEAR     34  18  51 N7        30.13R WCI  28
WINCHESTER     CLEAR     37  21  52 NW6       30.13R WCI  33
$$


...KEY TO REMARKS...
VSB - VISIBILITY IN MILES
WCI - WIND CHILL INDEX
HX  - HEAT INDEX





USA.gov is the U.S. government's official web portal to all federal, state and local government web resources and services.